Location: Hobi?a Gr?di?te
(45.4833°N, 22.7833°E)
Time: 11:39:32
(UTC+00:00)

Cosmos 1190 Rocket - Pass Details

Date: 28 January 2023
Orbit: 756 x 778 km, 74.1° (Epoch: 21 March)

Event Time Altitude Azimuth Distance (km) Brightness Sun altitude
Rises 17:53:01 0° 208° (SSW) 3,248 7.6 -25.2°
Reaches altitude 10° 17:55:25 10° 211° (SSW) 2,324 6.9 -25.6°
Maximum altitude 18:00:40 65° 294° (WNW) 855 4.3 -26.5°
Enters shadow 18:02:46 36° 3° (N) 1,217 4.9 -26.9°
